| time (UTC) | temp F | wind direction | speed MPH | gust MPH | rain 1hr in | rain 24hr in | rain mn in | humidity % | barometer mb |
| 20260502221126 | 85 | 0.0 | 0.0 | 0.00 | 0.00 | 0.00 | 52 | 1012.6 | |
| 20260502220126 | 85 | 0.0 | 0.0 | 0.00 | 0.00 | 0.00 | 52 | 1012.6 | |
| 20260502215126 | 85 | 0.0 | 0.0 | 0.00 | 0.00 | 0.00 | 52 | 1012.7 | |
| 20260502214126 | 86 | 0.0 | 0.0 | 0.00 | 0.00 | 0.00 | 52 | 1012.8 | |
| 20260502213126 | 86 | 0.0 | 0.0 | 0.00 | 0.00 | 0.00 | 51 | 1012.7 | |
| 20260502212126 | 86 | 0.0 | 0.0 | 0.00 | 0.00 | 0.00 | 51 | 1012.8 | |
| 20260502211126 | 86 | 0.0 | 0.0 | 0.00 | 0.00 | 0.00 | 50 | 1012.7 | |
| 20260502210125 | 86 | 0.0 | 0.0 | 0.00 | 0.00 | 0.00 | 50 | 1012.7 | |
| 20260502205126 | 86 | 0.0 | 0.0 | 0.00 | 0.00 | 0.00 | 50 | 1012.7 | |
| 20260502204126 | 86 | 0.0 | 0.0 | 0.00 | 0.00 | 0.00 | 50 | 1012.8 | |
| 20260502203126 | 86 | 0.0 | 0.0 | 0.00 | 0.00 | 0.00 | 50 | 1012.8 | |
| 20260502202126 | 86 | 0.0 | 0.0 | 0.00 | 0.00 | 0.00 | 49 | 1012.8 | |
| 20260502201126 | 87 | 0.0 | 0.0 | 0.00 | 0.00 | 0.00 | 49 | 1012.8 | |
| 20260502200125 | 87 | 0.0 | 0.0 | 0.00 | 0.00 | 0.00 | 49 | 1012.9 | |
| 20260502195125 | 87 | 0.0 | 0.0 | 0.00 | 0.00 | 0.00 | 48 | 1012.8 | |
| 20260502194125 | 87 | 0.0 | 0.0 | 0.00 | 0.00 | 0.00 | 49 | 1012.8 | |
| 20260502193125 | 87 | 0.0 | 0.0 | 0.00 | 0.00 | 0.00 | 49 | 1012.8 | |
| 20260502192125 | 87 | 0.0 | 0.0 | 0.00 | 0.00 | 0.00 | 49 | 1012.8 | |
| 20260502191125 | 87 | 0.0 | 0.0 | 0.00 | 0.00 | 0.00 | 49 | 1012.9 | |
| 20260502190125 | 87 | 0.0 | 0.0 | 0.00 | 0.00 | 0.00 | 50 | 1013.1 | |
| 20260502185125 | 87 | 0.0 | 0.0 | 0.00 | 0.00 | 0.00 | 50 | 1013.1 | |
| 20260502184125 | 87 | 0.0 | 0.0 | 0.00 | 0.00 | 0.00 | 50 | 1013.2 | |
| 20260502183125 | 87 | 0.0 | 0.0 | 0.00 | 0.00 | 0.00 | 50 | 1013.2 | |
| 20260502182125 | 87 | 0.0 | 0.0 | 0.00 | 0.00 | 0.00 | 49 | 1013.3 | |
| 20260502181125 | 87 | 0.0 | 0.0 | 0.00 | 0.00 | 0.00 | 49 | 1013.3 | |
| 20260502180125 | 87 | 0.0 | 0.0 | 0.00 | 0.00 | 0.00 | 49 | 1013.3 | |
| 20260502170125 | 88 | 0.0 | 0.0 | 0.00 | 0.00 | 0.00 | 49 | 1013.8 | |
| 20260502164125 | 88 | 0.0 | 0.0 | 0.00 | 0.00 | 0.00 | 49 | 1013.9 | |
| 20260502163125 | 88 | 0.0 | 0.0 | 0.00 | 0.00 | 0.00 | 49 | 1014.0 | |
| 20260502162125 | 89 | 0.0 | 0.0 | 0.00 | 0.00 | 0.00 | 49 | 1014.0 | |
| 20260502161125 | 89 | 0.0 | 0.0 | 0.00 | 0.00 | 0.00 | 50 | 1014.0 | |
| 20260502160125 | 89 | 0.0 | 0.0 | 0.00 | 0.00 | 0.00 | 50 | 1014.1 | |
| 20260502152125 | 89 | 0.0 | 0.0 | 0.00 | 0.00 | 0.00 | 50 | 1014.4 | |
| 20260502151125 | 89 | 0.0 | 0.0 | 0.00 | 0.00 | 0.00 | 50 | 1014.4 | |
| 20260502150125 | 89 | 0.0 | 0.0 | 0.00 | 0.00 | 0.00 | 50 | 1014.4 | |
| 20260502140125 | 89 | 0.0 | 0.0 | 0.00 | 0.00 | 0.00 | 50 | 1014.1 | |
| 20260502130125 | 90 | 0.0 | 0.0 | 0.00 | 0.00 | 0.00 | 47 | 1013.3 | |
| 20260502123125 | 90 | 0.0 | 0.0 | 0.00 | 0.00 | 0.00 | 47 | 1013.5 | |
| 20260502122126 | 90 | 0.0 | 0.0 | 0.00 | 0.00 | 0.00 | 47 | 1013.3 | |
| 20260502121125 | 90 | 0.0 | 0.0 | 0.00 | 0.00 | 0.00 | 47 | 1013.1 | |
| 20260502120125 | 89 | 0.0 | 0.0 | 0.00 | 0.00 | 0.00 | 47 | 1012.8 | |
| 20260502115125 | 89 | 0.0 | 0.0 | 0.00 | 0.00 | 0.00 | 48 | 1012.7 | |
| 20260502114125 | 89 | 0.0 | 0.0 | 0.00 | 0.00 | 0.00 | 48 | 1012.5 | |
| 20260502113125 | 90 | 0.0 | 0.0 | 0.00 | 0.00 | 0.00 | 48 | 1012.4 | |
| 20260502112125 | 90 | 0.0 | 0.0 | 0.00 | 0.00 | 0.00 | 48 | 1012.3 | |
| 20260502111125 | 90 | 0.0 | 0.0 | 0.00 | 0.00 | 0.00 | 48 | 1012.2 | |
| 20260502110125 | 91 | 0.0 | 0.0 | 0.00 | 0.00 | 0.00 | 48 | 1011.8 | |
| 20260502105125 | 91 | 0.0 | 0.0 | 0.00 | 0.00 | 0.00 | 48 | 1011.5 | |
| 20260502104125 | 91 | 0.0 | 0.0 | 0.00 | 0.00 | 0.00 | 48 | 1011.5 | |
| 20260502103125 | 91 | 0.0 | 0.0 | 0.00 | 0.00 | 0.00 | 48 | 1011.4 | |
| 20260502102125 | 92 | 0.0 | 0.0 | 0.00 | 0.00 | 0.00 | 48 | 1011.4 | |
| 20260502101125 | 92 | 0.0 | 0.0 | 0.00 | 0.00 | 0.00 | 48 | 1011.5 | |
| 20260502100124 | 92 | 0.0 | 0.0 | 0.00 | 0.00 | 0.00 | 47 | 1011.4 | |
| 20260502091124 | 93 | 0.0 | 0.0 | 0.00 | 0.00 | 0.00 | 47 | 1010.6 | |
| 20260502090124 | 94 | 0.0 | 0.0 | 0.00 | 0.00 | 0.00 | 46 | 1010.6 | |
| 20260502071124 | 104 | 0.0 | 0.0 | 0.00 | 0.00 | 0.00 | 30 | 1011.2 | |
| 20260502070124 | 104 | 0.0 | 0.0 | 0.00 | 0.00 | 0.00 | 29 | 1011.3 | |
| 20260502065124 | 103 | 0.0 | 0.0 | 0.00 | 0.00 | 0.00 | 30 | 1011.4 | |
| 20260502064124 | 103 | 0.0 | 0.0 | 0.00 | 0.00 | 0.00 | 30 | 1011.5 | |
| 20260502063124 | 103 | 0.0 | 0.0 | 0.00 | 0.00 | 0.00 | 30 | 1011.8 | |
| 20260502062124 | 102 | 0.0 | 0.0 | 0.00 | 0.00 | 0.00 | 31 | 1012.1 | |
| 20260502061124 | 101 | 0.0 | 0.0 | 0.00 | 0.00 | 0.00 | 32 | 1012.2 | |
| 20260502060124 | 101 | 0.0 | 0.0 | 0.00 | 0.00 | 0.00 | 30 | 1012.3 | |
| 20260502055124 | 100 | 0.0 | 0.0 | 0.00 | 0.00 | 0.00 | 30 | 1012.6 | |
| 20260502054124 | 100 | 0.0 | 0.0 | 0.00 | 0.00 | 0.00 | 30 | 1012.7 | |
| 20260502053124 | 100 | 0.0 | 0.0 | 0.00 | 0.00 | 0.00 | 29 | 1012.9 | |
| 20260502052124 | 101 | 0.0 | 0.0 | 0.00 | 0.00 | 0.00 | 29 | 1013.2 | |
| 20260502051124 | 100 | 0.0 | 0.0 | 0.00 | 0.00 | 0.00 | 29 | 1013.3 | |
| 20260502050124 | 100 | 0.0 | 0.0 | 0.00 | 0.00 | 0.00 | 29 | 1013.5 | |
| 20260502045124 | 100 | 0.0 | 0.0 | 0.00 | 0.00 | 0.00 | 29 | 1013.7 | |
| 20260502044124 | 100 | 0.0 | 0.0 | 0.00 | 0.00 | 0.00 | 29 | 1013.7 | |
| 20260502043124 | 100 | 0.0 | 0.0 | 0.00 | 0.00 | 0.00 | 29 | 1013.8 | |
| 20260502042116 | 100 | 0.0 | 0.0 | 0.00 | 0.00 | 0.00 | 28 | 1014.0 | |
| 20260502041115 | 100 | 0.0 | 0.0 | 0.00 | 0.00 | 0.00 | 28 | 1014.2 | |
| 20260502040116 | 99 | 0.0 | 0.0 | 0.00 | 0.00 | 0.00 | 28 | 1014.4 | |
| 20260502035116 | 99 | 0.0 | 0.0 | 0.00 | 0.00 | 0.00 | 28 | 1014.5 | |
| 20260502034116 | 98 | 0.0 | 0.0 | 0.00 | 0.00 | 0.00 | 29 | 1014.6 | |
| 20260502033116 | 98 | 0.0 | 0.0 | 0.00 | 0.00 | 0.00 | 29 | 1014.7 | |
| 20260502032116 | 98 | 0.0 | 0.0 | 0.00 | 0.00 | 0.00 | 28 | 1014.9 | |
| 20260502031116 | 97 | 0.0 | 0.0 | 0.00 | 0.00 | 0.00 | 28 | 1014.9 | |
| 20260502030116 | 96 | 0.0 | 0.0 | 0.00 | 0.00 | 0.00 | 30 | 1014.9 | |
| 20260502025115 | 95 | 0.0 | 0.0 | 0.00 | 0.00 | 0.00 | 32 | 1015.0 | |
| 20260502024115 | 94 | 0.0 | 0.0 | 0.00 | 0.00 | 0.00 | 33 | 1014.9 | |
| 20260502023115 | 93 | 0.0 | 0.0 | 0.00 | 0.00 | 0.00 | 34 | 1015.0 | |
| 20260502022116 | 93 | 0.0 | 0.0 | 0.00 | 0.00 | 0.00 | 35 | 1014.9 | |
| 20260502021115 | 92 | 0.0 | 0.0 | 0.00 | 0.00 | 0.00 | 36 | 1015.0 | |
| 20260502020115 | 92 | 0.0 | 0.0 | 0.00 | 0.00 | 0.00 | 36 | 1015.0 | |
| 20260502015115 | 92 | 0.0 | 0.0 | 0.00 | 0.00 | 0.00 | 37 | 1014.9 | |
| 20260502014115 | 92 | 0.0 | 0.0 | 0.00 | 0.00 | 0.00 | 39 | 1014.9 | |
| 20260502013115 | 91 | 0.0 | 0.0 | 0.00 | 0.00 | 0.00 | 40 | 1014.8 | |
| 20260502012115 | 90 | 0.0 | 0.0 | 0.00 | 0.00 | 0.00 | 42 | 1014.6 | |
| 20260502011115 | 90 | 0.0 | 0.0 | 0.00 | 0.00 | 0.00 | 43 | 1014.5 | |
| 20260502010115 | 89 | 0.0 | 0.0 | 0.00 | 0.00 | 0.00 | 44 | 1014.4 | |
| 20260502005115 | 88 | 0.0 | 0.0 | 0.00 | 0.00 | 0.00 | 46 | 1014.4 | |
| 20260502004115 | 87 | 0.0 | 0.0 | 0.00 | 0.00 | 0.00 | 48 | 1014.2 | |
| 20260502003115 | 85 | 0.0 | 0.0 | 0.00 | 0.00 | 0.00 | 49 | 1014.1 | |
| 20260502002115 | 85 | 0.0 | 0.0 | 0.00 | 0.00 | 0.00 | 49 | 1014.1 | |
| 20260502001115 | 85 | 0.0 | 0.0 | 0.00 | 0.00 | 0.00 | 50 | 1014.0 | |
| 20260502000115 | 84 | 0.0 | 0.0 | 0.00 | 0.00 | 0.00 | 50 | 1013.9 | |
| 20260501235115 | 84 | 0.0 | 0.0 | 0.00 | 0.00 | 0.00 | 50 | 1013.9 | |
| 20260501234115 | 84 | 0.0 | 0.0 | 0.00 | 0.00 | 0.00 | 50 | 1013.7 | |
| 20260501233115 | 84 | 0.0 | 0.0 | 0.00 | 0.00 | 0.00 | 50 | 1013.7 | |
| 20260501232115 | 84 | 0.0 | 0.0 | 0.00 | 0.00 | 0.00 | 51 | 1013.6 | |
| 20260501231115 | 84 | 0.0 | 0.0 | 0.00 | 0.00 | 0.00 | 51 | 1013.6 | |
| 20260501230115 | 83 | 0.0 | 0.0 | 0.00 | 0.00 | 0.00 | 52 | 1013.4 | |
| 20260501225115 | 83 | 0.0 | 0.0 | 0.00 | 0.00 | 0.00 | 51 | 1013.3 | |
| 20260501224115 | 83 | 0.0 | 0.0 | 0.00 | 0.00 | 0.00 | 51 | 1013.4 | |
| 20260501223115 | 83 | 0.0 | 0.0 | 0.00 | 0.00 | 0.00 | 51 | 1013.3 | |
| 20260501222115 | 83 | 0.0 | 0.0 | 0.00 | 0.00 | 0.00 | 51 | 1013.1 |